GW3985 Weather Reports


time (UTC)temp
F
wind
direction
speed
knots
gust
knots
rain 1hr
in
rain 24hr
in
rain mn
in
humidity
%
barometer
mb
20260504234035 62 284 0.0 1.7 0.00 0.00 0.00 36 1013.2
20260504233016 63 45 0.9 4.3 0.00 0.00 0.00 36 1013.0
20260504232016 63 299 0.0 2.6 0.00 0.00 0.00 36 1013.0
20260504231017 63 235 1.7 6.1 0.00 0.00 0.00 36 1012.5
20260504230057 64 284 1.7 7.0 0.00 0.00 0.00 34 1012.2
20260504225015 64 346 0.9 3.5 0.00 0.00 0.00 33 1012.1
20260504224015 65 331 2.6 7.0 0.00 0.00 0.00 32 1012.1
20260504223016 67 4 1.7 7.0 0.00 0.00 0.00 28 1011.9
20260504222016 68 13 0.9 3.5 0.00 0.00 0.00 26 1011.9
20260504221016 69 330 0.9 6.1 0.00 0.00 0.00 26 1011.9
20260504220017 70 273 0.0 0.9 0.00 0.00 0.00 26 1011.6
20260504215017 71 315 0.0 0.9 0.00 0.00 0.00 25 1011.6
20260504214015 71 50 0.9 3.5 0.00 0.00 0.00 25 1011.7
20260504213015 73 57 0.9 2.6 0.00 0.00 0.00 24 1011.8
20260504211516 73 53 0.9 3.5 0.00 0.00 0.00 24 1012.0
20260504210516 73 92 0.9 2.6 0.00 0.00 0.00 25 1012.1
20260504205517 74 97 0.9 7.0 0.00 0.00 0.00 24 1012.1
20260504204517 74 68 0.9 2.6 0.00 0.00 0.00 25 1012.2
20260504203515 73 81 0.9 3.5 0.00 0.00 0.00 26 1012.3
20260504202515 72 22 0.9 4.3 0.00 0.00 0.00 25 1012.4
20260504201535 71 344 0.9 2.6 0.00 0.00 0.00 25 1012.4
20260504200516 70 314 0.9 3.5 0.00 0.00 0.00 25 1012.5
20260504195517 71 57 0.9 3.5 0.00 0.00 0.00 26 1012.5
20260504194517 70 289 1.7 7.0 0.00 0.00 0.00 26 1012.4
20260504193537 69 285 1.7 7.0 0.00 0.00 0.00 26 1012.5
20260504192535 68 39 0.9 4.3 0.00 0.00 0.00 26 1012.5
20260504191515 68 334 0.9 6.1 0.00 0.00 0.00 26 1012.5
20260504190515 69 347 1.7 6.1 0.00 0.00 0.00 25 1012.5
20260504185516 69 67 0.9 1.7 0.00 0.00 0.00 24 1012.5
20260504184536 70 100 0.0 1.7 0.00 0.00 0.00 23 1012.5
20260504183517 71 46 0.9 5.2 0.00 0.00 0.00 23 1012.5
20260504182517 72 2 0.0 0.9 0.00 0.00 0.00 23 1012.6
20260504181515 73 26 0.9 3.5 0.00 0.00 0.00 21 1012.7
20260504180515 74 260 0.0 1.7 0.00 0.00 0.00 22 1012.7
20260504175516 74 61 0.9 4.3 0.00 0.00 0.00 22 1012.8
20260504174516 73 125 0.9 6.1 0.00 0.00 0.00 22 1013.0
20260504173517 73 90 0.9 1.7 0.00 0.00 0.00 22 1013.2
20260504172517 73 193 0.9 2.6 0.00 0.00 0.00 24 1013.3
20260504171535 72 251 0.0 2.6 0.00 0.00 0.00 23 1013.5
20260504170515 71 112 0.9 2.6 0.00 0.00 0.00 24 1013.6
20260504150517 63 206 0.9 4.3 0.00 0.00 0.00 29 1014.5
20260504140517 56 284 0.0 1.7 0.00 0.00 0.00 40 1014.4
20260504130516 50 131 0.9 1.7 0.00 0.00 0.00 44 1014.3
20260504110536 48 135 0.9 3.5 0.00 0.00 0.00 48 1014.3
20260504100536 48 134 0.9 2.6 0.00 0.00 0.00 49 1014.6
20260504081517 49 0.0 0.0 0.00 0.00 0.00 49 1015.5
20260504080515 48 129 0.0 0.9 0.00 0.00 0.00 51 1015.5
20260504050516 55 134 0.9 1.7 0.00 0.00 0.00 41 1016.1
20260504045517 55 126 0.0 1.7 0.00 0.00 0.00 41 1016.2
20260504044515 56 125 0.0 0.9 0.00 0.00 0.00 41 1016.4
20260504043515 56 128 0.0 0.9 0.00 0.00 0.00 41 1016.5
20260504042515 57 133 0.9 2.6 0.00 0.00 0.00 40 1016.5
20260504041516 57 133 1.7 2.6 0.00 0.00 0.00 39 1016.5
20260504040516 57 133 0.9 1.7 0.00 0.00 0.00 39 1016.6
20260504035516 57 136 0.9 1.7 0.00 0.00 0.00 40 1016.8
20260504034517 58 140 0.0 1.7 0.00 0.00 0.00 40 1016.7
20260504033514 58 65 0.0 0.9 0.00 0.00 0.00 38 1016.6
20260504032515 58 0.0 0.0 0.00 0.00 0.00 37 1016.7
20260504031515 59 0.0 0.0 0.00 0.00 0.00 36 1016.7
20260504030536 59 0.0 0.0 0.00 0.00 0.00 35 1016.6
20260504025516 59 0.0 0.0 0.00 0.00 0.00 35 1016.6
20260504024517 60 0.0 0.0 0.00 0.00 0.00 34 1016.5
20260504023517 60 0.0 0.0 0.00 0.00 0.00 33 1016.5
20260504022515 60 0.0 0.0 0.00 0.00 0.00 33 1016.6
20260504021515 61 48 0.0 0.9 0.00 0.00 0.00 32 1016.5
20260504020535 61 50 0.0 0.9 0.00 0.00 0.00 32 1016.5
20260504015516 62 0.0 0.0 0.00 0.00 0.00 31 1016.3
20260504014516 63 0.0 0.0 0.00 0.00 0.00 30 1016.3
20260504013537 63 0.0 0.0 0.00 0.00 0.00 30 1016.3
20260504012537 63 278 0.0 1.7 0.00 0.00 0.00 29 1016.3
20260504011555 64 290 0.0 1.7 0.00 0.00 0.00 29 1016.2
20260504010515 65 50 0.0 3.5 0.00 0.00 0.00 28 1016.2
20260504005516 65 2 0.9 3.5 0.00 0.00 0.00 27 1016.2
20260504004516 66 17 0.0 2.6 0.00 0.00 0.00 27 1016.1
20260504003516 66 92 0.0 2.6 0.00 0.00 0.00 27 1016.1
20260504002517 67 1 0.9 2.6 0.00 0.00 0.00 26 1016.1
20260504001517 68 39 0.0 1.7 0.00 0.00 0.00 25 1016.0
20260504000515 69 32 0.9 4.3 0.00 0.00 0.00 23 1015.9
20260503235515 70 352 0.0 1.7 0.00 0.00 0.00 21 1016.0